Find Zhangheng 1-02

NORAD ID: 64393 Int'l Des: 2025-128 Owner: CAS Country: CN operational
LEOCIRCULARRETROGRADESSO

現在のビュー

3D地球を読み込み中...

Zhangheng 1-02について

説明を読み込み中...

次回通過

Passes for default location (London). Set your location on the main map for personalized predictions.

高度履歴

Loading altitude history...

軌道要素

1 64393U 25128A 26150.22378990 -.00000069 00000-0 -35558-7 0 9997
2 64393 97.3575 277.4274 0012990 169.8909 190.2591 15.20972840 53192
Epoch: May 30, 2026 • Age: 6 hours

現在のステータス

高度 497.5 km
速度 7.62 km/s
衛星直下点 -1.40°S, 45.97°E
打ち上げ日 Jun 14, 2025
運用期間 0.9 years
タイプ other

技術仕様

分類 Payload
質量 730.00 kg
乾燥質量 700.00 kg
総質量 730.00 kg
長さ 1.40 m
直径 1.00 m
スパン 4.00 m
形状 Box+2 pan
製造者 DFHZ
バスタイプ CAST-2000
フェーズステータス In Orbit
所有者/国 CAS/CN

Most Searched